"Datum/tijd (MEZT)";"astronomisch [cm]";"waterstand [cm]";"verwachte opzet";"verwachting RWS"
2024-04-13 13:00;34;38;9;43
2024-04-13 13:10;33;36;9;42
2024-04-13 13:20;32;35;9;41
2024-04-13 13:30;31;34;9;40
2024-04-13 13:40;30;33;10;40
2024-04-13 13:50;28;32;11;39
2024-04-13 14:00;27;31;12;39
2024-04-13 14:10;26;31;12;38
2024-04-13 14:20;26;31;12;38
2024-04-13 14:30;25;31;13;38
2024-04-13 14:40;24;31;14;38
2024-04-13 14:50;24;32;13;37
2024-04-13 15:00;24;32;13;37
2024-04-13 15:10;23;31;13;36
2024-04-13 15:20;23;31;13;36
2024-04-13 15:30;23;30;12;35
2024-04-13 15:40;22;29;12;34
2024-04-13 15:50;21;29;12;33
2024-04-13 16:00;21;28;10;31
2024-04-13 16:10;20;29;10;30
2024-04-13 16:20;19;27;10;29
2024-04-13 16:30;18;27;11;29
2024-04-13 16:40;16;27;12;28
2024-04-13 16:50;15;27;12;27
2024-04-13 17:00;15;26;12;27
2024-04-13 17:10;14;25;12;26
2024-04-13 17:20;13;25;13;26
2024-04-13 17:30;13;24;13;26
2024-04-13 17:40;13;24;13;26
2024-04-13 17:50;13;24;13;26
2024-04-13 18:00;14;25;13;27
2024-04-13 18:10;16;27;12;28
2024-04-13 18:20;18;28;11;29
2024-04-13 18:30;22;30;9;31
2024-04-13 18:40;26;34;9;35
2024-04-13 18:50;32;39;8;40
2024-04-13 19:00;38;45;7;45
2024-04-13 19:10;46;53;9;55
2024-04-13 19:20;53;64;12;65
2024-04-13 19:30;61;75;14;75
2024-04-13 19:40;68;85;14;82
2024-04-13 19:50;75;93;13;88
2024-04-13 20:00;80;99;11;91
2024-04-13 20:10;84;102;9;93
2024-04-13 20:20;87;103;7;94
2024-04-13 20:30;89;103;5;94
2024-04-13 20:40;90;102;4;94
2024-04-13 20:50;89;101;4;93
2024-04-13 21:00;89;99;3;92
2024-04-13 21:10;88;99;3;91
2024-04-13 21:20;86;99;4;90
2024-04-13 21:30;85;99;4;89
2024-04-13 21:40;84;97;5;89
2024-04-13 21:50;83;97;6;89
2024-04-13 22:00;82;96;7;89
2024-04-13 22:10;80;94;9;89
2024-04-13 22:20;78;92;11;89
2024-04-13 22:30;76;89;12;88
2024-04-13 22:40;74;87;13;87
2024-04-13 22:50;71;85;14;85
2024-04-13 23:00;68;82;14;82
2024-04-13 23:10;64;79;15;79
2024-04-13 23:20;60;76;14;74
2024-04-13 23:30;57;73;12;69
2024-04-13 23:40;53;69;10;63
2024-04-13 23:50;50;64;8;58
2024-04-14 00:00;46;60;7;53
2024-04-14 00:10;43;56;6;49
2024-04-14 00:20;41;54;6;47
2024-04-14 00:30;38;52;7;45
2024-04-14 00:40;36;50;8;44
2024-04-14 00:50;34;49;10;44
2024-04-14 01:00;32;47;11;43
2024-04-14 01:10;31;47;11;42
2024-04-14 01:20;29;45;13;42
2024-04-14 01:30;28;43;13;41
2024-04-14 01:40;27;42;13;40
2024-04-14 01:50;26;40;14;40
2024-04-14 02:00;25;40;14;39
2024-04-14 02:10;24;39;15;39
2024-04-14 02:20;23;38;16;39
2024-04-14 02:30;22;38;16;38
2024-04-14 02:40;22;36;16;38
2024-04-14 02:50;22;37;16;38
2024-04-14 03:00;22;37;16;38
2024-04-14 03:10;22;37;16;38
2024-04-14 03:20;22;37;16;38
2024-04-14 03:30;22;37;15;37
2024-04-14 03:40;22;37;14;36
2024-04-14 03:50;21;37;15;36
2024-04-14 04:00;21;36;14;35
2024-04-14 04:10;20;35;14;34
2024-04-14 04:20;19;34;15;34
2024-04-14 04:30;17;33;16;33
2024-04-14 04:40;16;32;16;32
2024-04-14 04:50;15;31;17;32
2024-04-14 05:00;14;29;18;32
2024-04-14 05:10;14;28;17;31
2024-04-14 05:20;14;28;17;31
2024-04-14 05:30;14;27;17;31
2024-04-14 05:40;14;27;18;32
2024-04-14 05:50;15;28;17;32
2024-04-14 06:00;17;29;17;34
2024-04-14 06:10;18;30;18;36
2024-04-14 06:20;20;32;19;39
2024-04-14 06:30;23;35;20;43
2024-04-14 06:40;27;38;22;49
2024-04-14 06:50;31;43;25;56
2024-04-14 07:00;36;49;27;63
2024-04-14 07:10;42;58;30;72
2024-04-14 07:20;48;67;33;81
2024-04-14 07:30;55;78;35;90
2024-04-14 07:40;62;87;34;96
2024-04-14 07:50;70;96;30;100
2024-04-14 08:00;76;102;27;103
2024-04-14 08:10;82;105;23;105
2024-04-14 08:20;87;108;20;107
2024-04-14 08:30;91;110;17;108
2024-04-14 08:40;94;111;15;109
2024-04-14 08:50;95;110;15;110
2024-04-14 09:00;96;111;15;111
2024-04-14 09:10;96;111;16;112
2024-04-14 09:20;95;110;17;112
2024-04-14 09:30;94;110;19;113
2024-04-14 09:40;93;110;20;113
2024-04-14 09:50;92;110;20;112
2024-04-14 10:00;91;108;21;112
2024-04-14 10:10;90;109;21;111
2024-04-14 10:20;89;107;21;110
2024-04-14 10:30;87;106;22;109
2024-04-14 10:40;86;105;22;108
2024-04-14 10:50;83;102;23;106
2024-04-14 11:00;81;100;24;105
2024-04-14 11:10;78;97;25;103
2024-04-14 11:20;75;95;26;101
2024-04-14 11:30;71;91;28;99
2024-04-14 11:40;68;89;28;96
2024-04-14 11:50;64;85;27;91
2024-04-14 12:00;61;81;25;86
2024-04-14 12:10;57;77;24;81
2024-04-14 12:20;55;73;20;75
2024-04-14 12:30;52;68;19;71
2024-04-14 12:40;49;64;18;67
2024-04-14 12:50;47;62;17;64
2024-04-14 13:00;45;59;18;63
2024-04-14 13:10;43;58;19;62
2024-04-14 13:20;41;56;20;61
2024-04-14 13:30;39;54;22;61
2024-04-14 13:40;38;53;22;60
2024-04-14 13:50;36;52;24;60
2024-04-14 14:00;35;50;24;59
2024-04-14 14:10;33;49;26;59
2024-04-14 14:20;32;47;26;58
2024-04-14 14:30;30;46;27;57
2024-04-14 14:40;29;45;28;57
2024-04-14 14:50;28;45;28;56
2024-04-14 15:00;27;43;29;56
2024-04-14 15:10;26;43;29;55
2024-04-14 15:20;25;43;29;54
2024-04-14 15:30;24;42;30;54
2024-04-14 15:40;24;42;29;53
2024-04-14 15:50;24;41;28;52
2024-04-14 16:00;23;40;28;51
2024-04-14 16:10;23;40;28;51
2024-04-14 16:20;23;39;27;50
2024-04-14 16:30;22;39;27;49
2024-04-14 16:40;22;37;26;48
2024-04-14 16:50;21;38;27;48
2024-04-14 17:00;20;37;27;47
2024-04-14 17:10;19;37;27;46
2024-04-14 17:20;18;36;27;45
2024-04-14 17:30;17;36;28;45
2024-04-14 17:40;17;35;27;44
2024-04-14 17:50;16;34;27;43
2024-04-14 18:00;16;34;26;42
2024-04-14 18:10;16;34;26;42
2024-04-14 18:20;16;33;26;42
2024-04-14 18:30;17;34;12;29
2024-04-14 18:40;18;34;11;29
2024-04-14 18:50;20;35;10;30
2024-04-14 19:00;23;36;8;31
2024-04-14 19:10;26;38;6;32
2024-04-14 19:20;30;40;5;35
2024-04-14 19:30;35;43;3;38
2024-04-14 19:40;40;47;3;43
2024-04-14 19:50;45;52;5;50
2024-04-14 20:00;51;59;14;65
2024-04-14 20:10;57;67;15;72
2024-04-14 20:20;62;74;17;79
2024-04-14 20:30;67;81;18;85
2024-04-14 20:40;72;88;17;89
2024-04-14 20:50;75;92;16;91
2024-04-14 21:00;78;95;14;92
2024-04-14 21:10;80;96;12;92
2024-04-14 21:20;81;95;11;92
2024-04-14 21:30;82;95;9;91
2024-04-14 21:40;82;94;9;91
2024-04-14 21:50;82;92;8;90
2024-04-14 22:00;81;91;9;90
2024-04-14 22:10;80;90;9;89
2024-04-14 22:20;79;89;9;88
2024-04-14 22:30;78;88;10;88
2024-04-14 22:40;77;87;10;87
2024-04-14 22:50;75;85;11;86
2024-04-14 23:00;73;84;11;84
2024-04-14 23:10;71;81;12;83
2024-04-14 23:20;69;79;11;80
2024-04-14 23:30;67;75;10;77
2024-04-14 23:40;64;71;10;74
2024-04-14 23:50;61;68;8;69
2024-04-15 00:00;58;63;5;63
2024-04-15 00:10;55;59;2;57
2024-04-15 00:20;52;56;0;52
2024-04-15 00:30;49;53;-1;48
2024-04-15 00:40;46;51;-1;45
2024-04-15 00:50;43;48;0;43
2024-04-15 01:00;41;47;7;48
2024-04-15 01:10;38;46;6;44
2024-04-15 01:20;36;44;7;43
2024-04-15 01:30;34;43;8;42
2024-04-15 01:40;32;40;10;42
2024-04-15 01:50;31;38;11;42
2024-04-15 02:00;29;37;12;41
2024-04-15 02:10;27;35;13;40
2024-04-15 02:20;26;33;13;39
2024-04-15 02:30;24;31;14;38
2024-04-15 02:40;23;29;14;37
2024-04-15 02:50;22;28;14;36
2024-04-15 03:00;21;26;14;35
2024-04-15 03:10;20;25;15;35
2024-04-15 03:20;19;23;15;34
2024-04-15 03:30;19;23;15;34
2024-04-15 03:40;19;22;14;33
2024-04-15 03:50;18;22;15;33
2024-04-15 04:00;18;21;15;33
2024-04-15 04:10;18;21;15;33
2024-04-15 04:20;18;20;14;32
2024-04-15 04:30;17;21;15;32
2024-04-15 04:40;17;20;15;32
2024-04-15 04:50;16;20;15;31
2024-04-15 05:00;15;20;16;31
2024-04-15 05:10;15;20;15;30
2024-04-15 05:20;14;20;16;30
2024-04-15 05:30;13;20;16;29
2024-04-15 05:40;12;20;16;28
2024-04-15 05:50;12;20;16;28
2024-04-15 06:00;12;20;15;27
2024-04-15 06:10;12;20;15;27
2024-04-15 06:20;13;20;14;27
2024-04-15 06:30;14;21;13;27
2024-04-15 06:40;15;21;13;28
2024-04-15 06:50;17;22;12;29
2024-04-15 07:00;20;23;11;31
2024-04-15 07:10;23;25;11;34
2024-04-15 07:20;26;27;11;37
2024-04-15 07:30;30;31;12;42
2024-04-15 07:40;35;35;14;49
2024-04-15 07:50;40;42;17;57
2024-04-15 08:00;45;50;21;66
2024-04-15 08:10;51;59;24;75
2024-04-15 08:20;57;70;27;84
2024-04-15 08:30;62;78;29;91
2024-04-15 08:40;68;85;28;96
2024-04-15 08:50;73;90;27;100
2024-04-15 09:00;77;93;24;101
2024-04-15 09:10;81;94;21;102
2024-04-15 09:20;84;94;18;102
2024-04-15 09:30;86;94;16;102
2024-04-15 09:40;87;93;14;101
2024-04-15 09:50;88;92;13;101
2024-04-15 10:00;89;92;12;101
2024-04-15 10:10;89;91;12;101
2024-04-15 10:20;89;91;12;101
2024-04-15 10:30;88;91;12;100
2024-04-15 10:40;87;89;13;100
2024-04-15 10:50;87;89;12;99
2024-04-15 11:00;85;87;13;98
2024-04-15 11:10;84;85;14;98
2024-04-15 11:20;82;84;15;97
2024-04-15 11:30;80;82;16;96
2024-04-15 11:40;78;80;17;95
2024-04-15 11:50;76;78;18;94
2024-04-15 12:00;73;77;20;93
2024-04-15 12:10;71;75;20;91
2024-04-15 12:20;68;72;21;89
2024-04-15 12:30;66;70;20;86
2024-04-15 12:40;63;67;20;83
2024-04-15 12:50;61;62;18;79
2024-04-15 13:00;58;61;17;75
2024-04-15 13:10;56;57;15;71
2024-04-15 13:20;54;56;13;67
2024-04-15 13:30;52;54;13;65
2024-04-15 13:40;50;53;13;63
2024-04-15 13:50;48;52;13;61
2024-04-15 14:00;46;52;15;61
2024-04-15 14:10;44;51;16;60
2024-04-15 14:20;42;51;18;60
2024-04-15 14:30;41;49;20;61
2024-04-15 14:40;39;49;22;61
2024-04-15 14:50;37;;24;61
2024-04-15 15:00;35;47;27;62
2024-04-15 15:10;34;46;28;62
2024-04-15 15:20;32;45;31;63
2024-04-15 15:30;31;46;33;64
2024-04-15 15:40;29;47;35;64
2024-04-15 15:50;28;47;37;65
2024-04-15 16:00;27;46;38;65
2024-04-15 16:10;26;47;39;65
2024-04-15 16:20;25;47;39;64
2024-04-15 16:30;25;47;39;64
2024-04-15 16:40;24;47;39;63
2024-04-15 16:50;24;48;37;61
2024-04-15 17:00;24;48;36;60
2024-04-15 17:10;23;49;36;59
2024-04-15 17:20;23;48;34;57
2024-04-15 17:30;22;47;34;56
2024-04-15 17:40;22;48;33;55
2024-04-15 17:50;21;48;33;54
2024-04-15 18:00;20;47;34;54
2024-04-15 18:10;19;46;29;48
2024-04-15 18:20;19;46;29;48
2024-04-15 18:30;18;48;30;48
2024-04-15 18:40;18;51;30;48
2024-04-15 18:50;18;50;32;50
2024-04-15 19:00;19;55;39;58
2024-04-15 19:10;20;59;43;63
2024-04-15 19:20;21;63;48;69
2024-04-15 19:30;23;68;52;75
2024-04-15 19:40;26;72;54;80
2024-04-15 19:50;29;79;56;85
2024-04-15 20:00;32;84;56;88
2024-04-15 20:10;35;90;57;92
2024-04-15 20:20;39;95;56;95
2024-04-15 20:30;43;99;56;99
2024-04-15 20:40;47;103;56;103
2024-04-15 20:50;51;107;55;106
2024-04-15 21:00;55;111;55;110
2024-04-15 21:10;59;113;54;113
2024-04-15 21:20;62;115;54;116
2024-04-15 21:30;65;117;54;119
2024-04-15 21:40;68;118;53;121
2024-04-15 21:50;70;120;53;123
2024-04-15 22:00;71;122;53;124
2024-04-15 22:10;72;125;53;125
2024-04-15 22:20;73;126;53;126
2024-04-15 22:30;74;126;52;126
2024-04-15 22:40;74;127;53;127
2024-04-15 22:50;73;127;54;127
2024-04-15 23:00;73;127;54;127
2024-04-15 23:10;72;127;55;127
2024-04-15 23:20;71;125;56;127
2024-04-15 23:30;70;124;56;126
2024-04-15 23:40;69;124;56;125
2024-04-15 23:50;68;122;55;123
2024-04-16 00:00;66;121;56;122
2024-04-16 00:10;64;121;56;120
2024-04-16 00:20;62;119;57;119
2024-04-16 00:30;60;118;58;118
2024-04-16 00:40;58;117;59;117
2024-04-16 00:50;55;115;61;116
2024-04-16 01:00;53;113;60;113
2024-04-16 01:10;50;109;61;111
2024-04-16 01:20;48;104;60;108
2024-04-16 01:30;45;101;60;105
2024-04-16 01:40;43;96;58;101
2024-04-16 01:50;41;93;55;96
2024-04-16 02:00;39;91;54;93
2024-04-16 02:10;37;88;52;89
2024-04-16 02:20;35;87;52;87
2024-04-16 02:30;33;85;52;85
2024-04-16 02:40;31;84;52;83
2024-04-16 02:50;29;83;53;82
2024-04-16 03:00;28;81;52;80
2024-04-16 03:10;26;79;53;79
2024-04-16 03:20;24;78;53;77
2024-04-16 03:30;23;77;52;75
2024-04-16 03:40;22;77;52;74
2024-04-16 03:50;21;77;52;73
2024-04-16 04:00;20;76;51;71
2024-04-16 04:10;19;76;51;70
2024-04-16 04:20;18;75;52;70
2024-04-16 04:30;17;72;52;69
2024-04-16 04:40;17;70;51;68
2024-04-16 04:50;16;68;51;67
2024-04-16 05:00;16;66;50;66
2024-04-16 05:10;15;65;50;65
2024-04-16 05:20;15;65;49;64
2024-04-16 05:30;14;64;49;63
2024-04-16 05:40;13;62;49;62
2024-04-16 05:50;13;62;48;61
2024-04-16 06:00;12;62;49;61
2024-04-16 06:10;11;62;50;61
2024-04-16 06:20;11;62;50;61
2024-04-16 06:30;11;63;50;61
2024-04-16 06:40;11;63;51;62
2024-04-16 06:50;11;65;53;64
2024-04-16 07:00;12;67;54;66
2024-04-16 07:10;13;70;55;68
2024-04-16 07:20;14;74;58;72
2024-04-16 07:30;16;79;60;76
2024-04-16 07:40;18;84;63;81
2024-04-16 07:50;21;91;66;87
2024-04-16 08:00;24;99;79;103
2024-04-16 08:10;28;108;80;108
2024-04-16 08:20;31;117;82;113
2024-04-16 08:30;35;123;81;116
2024-04-16 08:40;39;128;80;119
2024-04-16 08:50;44;132;78;122
2024-04-16 09:00;48;135;76;124
2024-04-16 09:10;52;136;74;126
2024-04-16 09:20;56;139;72;128
2024-04-16 09:30;60;139;71;131
2024-04-16 09:40;63;140;71;134
2024-04-16 09:50;67;143;70;137
2024-04-16 10:00;70;144;69;139
2024-04-16 10:10;72;146;70;142
2024-04-16 10:20;75;149;69;144
2024-04-16 10:30;77;151;69;146
2024-04-16 10:40;78;152;70;148
2024-04-16 10:50;80;154;69;149
2024-04-16 11:00;81;155;69;150
2024-04-16 11:10;81;156;70;151
2024-04-16 11:20;81;156;71;152
2024-04-16 11:30;81;156;72;153
2024-04-16 11:40;81;156;73;154
2024-04-16 11:50;80;155;74;154
2024-04-16 12:00;79;154;75;154
2024-04-16 12:10;78;153;76;154
2024-04-16 12:20;77;152;76;153
2024-04-16 12:30;75;150;78;153
2024-04-16 12:40;74;150;78;152
2024-04-16 12:50;72;148;78;150
2024-04-16 13:00;70;147;78;148
2024-04-16 13:10;68;143;78;146
2024-04-16 13:20;67;141;76;143
2024-04-16 13:30;65;137;75;140
2024-04-16 13:40;63;133;74;137
2024-04-16 13:50;61;128;72;133
2024-04-16 14:00;60;124;68;128
2024-04-16 14:10;58;120;64;122
2024-04-16 14:20;56;116;61;117
2024-04-16 14:30;55;112;57;112
2024-04-16 14:40;53;108;54;107
2024-04-16 14:50;51;105;53;104
2024-04-16 15:00;49;103;52;101
2024-04-16 15:10;47;102;53;100
2024-04-16 15:20;45;100;53;98
2024-04-16 15:30;43;99;54;97
2024-04-16 15:40;41;98;55;96
2024-04-16 15:50;39;;55;94
2024-04-16 16:00;37;94;56;93
2024-04-16 16:10;36;92;56;92
2024-04-16 16:20;34;90;56;90
2024-04-16 16:30;32;88;57;89
2024-04-16 16:40;31;86;56;87
2024-04-16 16:50;29;84;57;86
2024-04-16 17:00;28;83;57;85
2024-04-16 17:10;27;81;56;83
2024-04-16 17:20;27;79;55;82
2024-04-16 17:30;26;77;55;81
2024-04-16 17:40;25;75;55;80
2024-04-16 17:50;25;73;53;78
2024-04-16 18:00;25;72;52;77
2024-04-16 18:10;24;70;52;76
2024-04-16 18:20;24;69;50;74
2024-04-16 18:30;23;67;50;73
2024-04-16 18:40;22;67;50;72
2024-04-16 18:50;22;65;48;70
2024-04-16 19:00;21;65;44;65
2024-04-16 19:10;21;64;43;64
2024-04-16 19:20;20;63;44;64
2024-04-16 19:30;20;63;43;63
2024-04-16 19:40;21;62;42;63
2024-04-16 19:50;22;62;40;62
2024-04-16 20:00;23;62;39;62
2024-04-16 20:10;24;62;37;61
2024-04-16 20:20;26;62;35;61
2024-04-16 20:30;28;63;33;61
2024-04-16 20:40;31;63;30;61
2024-04-16 20:50;33;64;29;62
2024-04-16 21:00;36;65;26;62
2024-04-16 21:10;38;66;25;63
2024-04-16 21:20;41;68;23;64
2024-04-16 21:30;43;70;22;65
2024-04-16 21:40;46;71;20;66
2024-04-16 21:50;48;73;20;68
2024-04-16 22:00;51;76;19;70
2024-04-16 22:10;53;79;19;72
2024-04-16 22:20;55;82;19;74
2024-04-16 22:30;57;85;20;77
2024-04-16 22:40;59;87;20;79
2024-04-16 22:50;61;88;21;82
2024-04-16 23:00;62;90;22;84
2024-04-16 23:10;63;90;23;86
2024-04-16 23:20;64;91;22;86
2024-04-16 23:30;65;92;22;87
2024-04-16 23:40;65;92;21;86
2024-04-16 23:50;65;92;21;86
2024-04-17 00:00;65;92;20;85
2024-04-17 00:10;65;91;18;83
2024-04-17 00:20;65;90;17;82
2024-04-17 00:30;65;90;15;80
2024-04-17 00:40;64;88;14;78
2024-04-17 00:50;63;86;12;75
2024-04-17 01:00;63;84;10;73
2024-04-17 01:10;61;81;9;70
2024-04-17 01:20;60;78;8;68
2024-04-17 01:30;58;77;8;66
2024-04-17 01:40;57;75;7;64
2024-04-17 01:50;55;72;7;62
2024-04-17 02:00;53;70;14;67
2024-04-17 02:10;51;69;14;65
2024-04-17 02:20;48;67;16;64
2024-04-17 02:30;46;65;17;63
2024-04-17 02:40;44;64;17;61
2024-04-17 02:50;42;62;18;60
2024-04-17 03:00;40;60;18;58
2024-04-17 03:10;38;59;19;57
2024-04-17 03:20;36;56;19;55
2024-04-17 03:30;34;55;19;53
2024-04-17 03:40;32;53;20;52
2024-04-17 03:50;31;51;19;50
2024-04-17 04:00;29;49;19;48
2024-04-17 04:10;27;47;20;47
2024-04-17 04:20;26;45;19;45
2024-04-17 04:30;24;44;20;44
2024-04-17 04:40;23;41;19;42
2024-04-17 04:50;22;39;19;41
2024-04-17 05:00;21;39;19;40
2024-04-17 05:10;20;37;19;39
2024-04-17 05:20;19;35;18;37
2024-04-17 05:30;18;35;18;36
2024-04-17 05:40;17;33;18;35
2024-04-17 05:50;16;32;18;34
2024-04-17 06:00;15;31;18;33
2024-04-17 06:10;14;31;19;33
2024-04-17 06:20;13;30;19;32
2024-04-17 06:30;12;29;20;32
2024-04-17 06:40;12;28;19;31
2024-04-17 06:50;11;28;20;31
2024-04-17 07:00;11;29;20;31
2024-04-17 07:10;11;29;19;30
2024-04-17 07:20;10;30;20;30
2024-04-17 07:30;11;30;19;30
2024-04-17 07:40;11;30;18;29
2024-04-17 07:50;12;29;17;29
2024-04-17 08:00;13;30;15;28
2024-04-17 08:10;14;30;14;28
2024-04-17 08:20;16;30;12;28
2024-04-17 08:30;18;31;10;28
2024-04-17 08:40;20;31;8;28
2024-04-17 08:50;23;32;6;29
2024-04-17 09:00;25;33;5;30
2024-04-17 09:10;28;34;4;32
2024-04-17 09:20;31;36;3;34
2024-04-17 09:30;34;;3;37
2024-04-17 09:40;36;40;4;40
2024-04-17 09:50;39;43;5;44
2024-04-17 10:00;42;47;7;49
2024-04-17 10:10;45;50;9;54
2024-04-17 10:20;48;55;12;60
2024-04-17 10:30;51;59;14;65
2024-04-17 10:40;53;65;18;71
2024-04-17 10:50;56;71;19;75
2024-04-17 11:00;59;77;20;79
2024-04-17 11:10;62;83;20;82
2024-04-17 11:20;65;87;18;83
2024-04-17 11:30;67;90;17;84
2024-04-17 11:40;69;92;16;85
2024-04-17 11:50;71;95;15;86
2024-04-17 12:00;73;97;13;86
2024-04-17 12:10;74;97;13;87
2024-04-17 12:20;75;96;12;87
2024-04-17 12:30;76;96;12;88
2024-04-17 12:40;76;96;12;88
2024-04-17 12:50;77;96;11;88
2024-04-17 13:00;76;96;23;99
2024-04-17 13:10;76;96;22;98
2024-04-17 13:20;75;97;23;98
2024-04-17 13:30;75;97;22;97
2024-04-17 13:40;74;98;23;97
2024-04-17 13:50;73;97;23;96
2024-04-17 14:00;72;96;24;96
2024-04-17 14:10;71;94;24;95
2024-04-17 14:20;70;92;23;93
2024-04-17 14:30;68;90;24;92
2024-04-17 14:40;67;88;22;89
2024-04-17 14:50;65;85;21;86
2024-04-17 15:00;64;82;19;83
2024-04-17 15:10;62;79;17;79
2024-04-17 15:20;61;76;14;75
2024-04-17 15:30;59;73;11;70
2024-04-17 15:40;57;71;10;67
2024-04-17 15:50;55;69;9;64
2024-04-17 16:00;53;67;9;62
2024-04-17 16:10;51;67;10;61
2024-04-17 16:20;49;65;11;60
2024-04-17 16:30;47;64;13;60
2024-04-17 16:40;44;64;15;59
2024-04-17 16:50;42;63;17;59
2024-04-17 17:00;40;60;18;58
2024-04-17 17:10;38;59;20;58
2024-04-17 17:20;36;57;21;57
2024-04-17 17:30;35;56;22;57
2024-04-17 17:40;33;56;23;56
2024-04-17 17:50;32;54;24;56
2024-04-17 18:00;30;53;25;55
2024-04-17 18:10;29;52;26;55
2024-04-17 18:20;29;52;25;54
2024-04-17 18:30;28;51;26;54
2024-04-17 18:40;27;48;26;53
2024-04-17 18:50;27;48;25;52
2024-04-17 19:00;26;47;26;52
2024-04-17 19:10;26;46;25;51
2024-04-17 19:20;25;46;25;50
2024-04-17 19:30;24;44;25;49
2024-04-17 19:40;24;44;25;49
2024-04-17 19:50;23;43;25;48
2024-04-17 20:00;22;43;25;47
2024-04-17 20:10;22;42;24;46
2024-04-17 20:20;22;42;23;45
2024-04-17 20:30;22;41;23;45
2024-04-17 20:40;23;40;21;44
2024-04-17 20:50;24;40;20;44
2024-04-17 21:00;25;41;15;40
2024-04-17 21:10;26;40;14;40
2024-04-17 21:20;27;40;13;40
2024-04-17 21:30;28;41;13;41
2024-04-17 21:40;30;42;11;41
2024-04-17 21:50;31;41;11;42
2024-04-17 22:00;33;43;10;43
2024-04-17 22:10;34;44;10;44
2024-04-17 22:20;36;44;10;46
2024-04-17 22:30;37;45;10;47
2024-04-17 22:40;39;47;11;50
2024-04-17 22:50;41;47;11;52
2024-04-17 23:00;43;50;12;55
2024-04-17 23:10;45;53;13;58
2024-04-17 23:20;46;55;15;61
2024-04-17 23:30;48;59;16;64
2024-04-17 23:40;50;61;17;67
2024-04-17 23:50;52;65;18;70
2024-04-18 00:00;53;69;20;73
2024-04-18 00:10;55;72;20;75
2024-04-18 00:20;56;75;21;77
2024-04-18 00:30;58;78;20;78
2024-04-18 00:40;59;80;20;79
2024-04-18 00:50;60;81;19;79
2024-04-18 01:00;62;82;17;79
2024-04-18 01:10;63;81;15;78
2024-04-18 01:20;64;80;14;78
2024-04-18 01:30;65;79;12;77
2024-04-18 01:40;65;79;11;76
2024-04-18 01:50;65;78;10;75
2024-04-18 02:00;65;77;10;75
2024-04-18 02:10;64;76;9;73
2024-04-18 02:20;63;75;9;72
2024-04-18 02:30;62;73;8;70
2024-04-18 02:40;60;71;8;68
2024-04-18 02:50;58;68;7;65
2024-04-18 03:00;57;66;5;62
2024-04-18 03:10;55;63;3;58
2024-04-18 03:20;53;60;1;54
2024-04-18 03:30;50;58;1;51
2024-04-18 03:40;48;56;0;48
2024-04-18 03:50;46;55;0;46
2024-04-18 04:00;44;54;0;44
2024-04-18 04:10;41;53;2;43
2024-04-18 04:20;39;52;4;43
2024-04-18 04:30;37;51;5;42
2024-04-18 04:40;35;50;6;41
2024-04-18 04:50;33;48;7;40
2024-04-18 05:00;32;47;7;39
2024-04-18 05:10;30;44;8;38
2024-04-18 05:20;29;43;8;37
2024-04-18 05:30;27;41;9;36
2024-04-18 05:40;26;40;9;35
2024-04-18 05:50;24;38;9;33
2024-04-18 06:00;23;37;9;32
2024-04-18 06:10;22;35;9;31
2024-04-18 06:20;20;34;10;30
2024-04-18 06:30;19;33;10;29
2024-04-18 06:40;17;32;11;28
2024-04-18 06:50;16;30;11;27
2024-04-18 07:00;15;29;11;26
2024-04-18 07:10;14;28;11;25
2024-04-18 07:20;13;28;11;24
2024-04-18 07:30;12;26;11;23
2024-04-18 07:40;12;25;11;23
2024-04-18 07:50;11;26;11;22
2024-04-18 08:00;11;25;11;22
2024-04-18 08:10;11;24;10;21
2024-04-18 08:20;11;24;10;21
2024-04-18 08:30;11;23;9;20
2024-04-18 08:40;12;23;8;20
2024-04-18 08:50;13;23;7;20
2024-04-18 09:00;14;23;6;20
2024-04-18 09:10;15;23;4;19
2024-04-18 09:20;16;22;3;19
2024-04-18 09:30;18;22;2;20
2024-04-18 09:40;19;22;1;20
2024-04-18 09:50;21;22;0;21
2024-04-18 10:00;22;23;-1;21
2024-04-18 10:10;24;23;-3;21
2024-04-18 10:20;25;24;-4;21
2024-04-18 10:30;27;26;-5;22
2024-04-18 10:40;28;27;-4;24
2024-04-18 10:50;30;29;-5;25
2024-04-18 11:00;32;31;-4;28
2024-04-18 11:10;34;34;-3;31
2024-04-18 11:20;37;38;-2;35
2024-04-18 11:30;40;41;-1;39
2024-04-18 11:40;43;;2;45
2024-04-18 11:50;46;52;5;51
2024-04-18 12:00;50;56;7;57
2024-04-18 12:10;53;63;10;63
2024-04-18 12:20;57;69;11;68
2024-04-18 12:30;60;75;12;72
2024-04-18 12:40;63;79;12;75
2024-04-18 12:50;66;82;11;77
2024-04-18 13:00;69;85;9;78
2024-04-18 13:10;71;85;7;78
2024-04-18 13:20;74;86;4;78
2024-04-18 13:30;75;86;3;78
2024-04-18 13:40;77;86;1;78
2024-04-18 13:50;78;87;0;78
2024-04-18 14:00;79;87;-1;78
2024-04-18 14:10;79;87;-1;78
2024-04-18 14:20;79;87;-1;78
2024-04-18 14:30;79;88;0;79
2024-04-18 14:40;78;89;1;79
2024-04-18 14:50;78;89;1;79
2024-04-18 15:00;77;88;1;78
2024-04-18 15:10;76;87;2;78
2024-04-18 15:20;74;86;3;77
2024-04-18 15:30;73;84;4;77
2024-04-18 15:40;72;83;4;76
2024-04-18 15:50;70;81;4;74
2024-04-18 16:00;69;;4;73
2024-04-18 16:10;67;78;4;71
2024-04-18 16:20;65;;3;68
2024-04-18 16:30;63;73;1;64
2024-04-18 16:40;61;70;-1;60
2024-04-18 16:50;59;68;-2;57
2024-04-18 17:00;56;64;-3;53
2024-04-18 17:10;54;61;-4;50
2024-04-18 17:20;52;60;-4;48
2024-04-18 17:30;49;57;-3;46
2024-04-18 17:40;47;56;-2;45
2024-04-18 17:50;45;54;-1;44
2024-04-18 18:00;43;53;1;44
2024-04-18 18:10;40;52;3;43
2024-04-18 18:20;38;51;4;42
2024-04-18 18:30;37;49;5;42
2024-04-18 18:40;35;47;6;41
2024-04-18 18:50;33;46;7;40
2024-04-18 19:00;32;44;7;39
2024-04-18 19:10;31;42;7;38
2024-04-18 19:20;30;41;7;37
2024-04-18 19:30;29;39;7;36
2024-04-18 19:40;29;38;6;35
2024-04-18 19:50;28;36;7;35
2024-04-18 20:00;27;35;7;34
2024-04-18 20:10;27;34;6;33
2024-04-18 20:20;26;33;7;33
2024-04-18 20:30;25;32;7;32
2024-04-18 20:40;25;31;7;32
2024-04-18 20:50;24;30;7;31
2024-04-18 21:00;23;30;8;31
2024-04-18 21:10;23;29;7;30
2024-04-18 21:20;23;29;7;30
2024-04-18 21:30;23;28;6;29
2024-04-18 21:40;23;27;5;28
2024-04-18 21:50;23;27;5;28
2024-04-18 22:00;23;27;4;27
2024-04-18 22:10;23;26;4;27
2024-04-18 22:20;24;26;2;26
2024-04-18 22:30;24;26;2;26
2024-04-18 22:40;25;25;1;26
2024-04-18 22:50;25;26;1;26
2024-04-18 23:00;26;26;0;26
2024-04-18 23:10;27;27;-1;26
2024-04-18 23:20;28;27;-2;26
2024-04-18 23:30;29;27;-3;26
2024-04-18 23:40;31;28;-4;27
2024-04-18 23:50;33;30;-5;28
2024-04-19 00:00;35;30;-5;30
2024-04-19 00:10;37;33;-5;32
2024-04-19 00:20;39;35;-4;35
2024-04-19 00:30;41;39;-2;39
2024-04-19 00:40;43;43;1;44
2024-04-19 00:50;46;48;4;50
2024-04-19 01:00;48;55;7;55
2024-04-19 01:10;51;62;11;62
2024-04-19 01:20;54;69;15;69